Charleston, WV

10:52 PM EDT on August 24, 2019 (GMT -0400)
Yeager Airport

Weather History for KCRW - June, 2019

Change the Weather History Date:

Saturday, June 1, 2019

  Actual Average Record
Temperature  
Mean Temperature 69 °F 68 °F  
Max Temperature 79 °F 78 °F 98 °F (1929)
Min Temperature 58 °F 58 °F 39 °F (1966)
Degree Days  
Heating Degree Days 0 1  
Month to date heating degree days 0 1  
Since 1 June heating degree days 0 1  
Since 1 July heating degree days 4144 4466  
Cooling Degree Days 4 4  
Month to date cooling degree days 4 4  
Year to date cooling degree days 200 114  
Since 1 June cooling degree days 4 4  
Growing Degree Days 18 (Base 50)    
Moisture  
Dew Point 60 °F    
Average Humidity 78    
Maximum Humidity 100    
Minimum Humidity 56    
Precipitation  
Precipitation 0.00 in 0.16 in 1.39 in (1995)
Month to date precipitation 0.00 0.16  
Year to date precipitation 22.23 18.30  
Snow  
Snow 0.00 in 0.00 in 0.00 in (2017)
Month to date snowfall 0.0 0.0  
Since 1 September snowfall 11.7 36.4  
Snow Depth 0.00 in    
Sea Level Pressure  
Sea Level Pressure 29.90 in    
Wind  
Wind Speed 3 mph (SSW)    
Max Wind Speed 9 mph    
Max Gust Speed 14 mph    
Visibility 6 miles    
Events Fog    
T = Trace of Precipitation, MM = Missing Value Source: NWS Daily Summary

Daily Weather History Graph

Daily Weather History Graph

Search for Another Location

Airport or City:

Astronomy

Jun. 01, 2019 Rise Set
Actual Time 6:04 AM EDT 8:44 PM EDT
Civil Twilight 5:33 AM EDT 9:15 PM EDT
Nautical Twilight 4:54 AM EDT 9:54 PM EDT
Astronomical Twilight 4:11 AM EDT 10:37 PM EDT
Moon 5:06 AM EDT (6/1) 6:58 PM EDT (6/1)
Length of Visible Light 15h 41m
Length of Day
14h 39m
Waning Crescent, 4% of the Moon is Illuminated
Jun 1
Waning Crescent
Jun 3
New
Jun 10
First Quarter
Jun 17
Full
Jun 25
Last Quarter

Hourly Weather History & Observations

Time (EDT) Temp. Dew Point Humidity Pressure Visibility Wind Dir Wind Speed Gust Speed Precip Events Conditions
12:54 AM 61.0 °F 59.0 °F 93% 29.91 in 8.0 mi SSE 4.6 mph - N/A   Scattered Clouds
1:03 AM 60.1 °F 59.0 °F 96% 29.92 in 0.5 mi Calm Calm - N/A Fog Fog
1:54 AM 60.1 °F 59.0 °F 96% 29.91 in 0.5 mi Calm Calm - N/A Fog Fog
2:54 AM 59.0 °F 59.0 °F 100% 29.92 in 8.0 mi SE 3.5 mph - N/A   Scattered Clouds
3:54 AM 57.9 °F 57.9 °F 100% 29.91 in 0.5 mi Calm Calm - N/A Fog Fog
4:54 AM 59.0 °F 57.9 °F 96% 29.91 in 0.5 mi South 3.5 mph - N/A Fog Fog
5:54 AM 59.0 °F 59.0 °F 100% 29.92 in 0.5 mi SE 4.6 mph - N/A Fog Fog
6:54 AM 59.0 °F 59.0 °F 100% 29.94 in 0.5 mi Calm Calm - N/A Fog Fog
7:54 AM 60.1 °F 59.0 °F 96% 29.96 in 0.5 mi Calm Calm - N/A Fog Fog
8:54 AM 60.1 °F 59.0 °F 96% 29.95 in 0.5 mi WSW 3.5 mph - N/A Fog Fog
9:54 AM 64.0 °F 60.1 °F 87% 29.96 in 7.0 mi Calm Calm - N/A   Overcast
10:54 AM 64.0 °F 60.1 °F 87% 29.95 in 8.0 mi SW 5.8 mph - N/A   Overcast
11:54 AM 66.0 °F 61.0 °F 84% 29.94 in 10.0 mi South 5.8 mph - N/A   Overcast
12:23 PM 66.9 °F 61.0 °F 81% 29.95 in 10.0 mi Variable 4.6 mph - N/A   Mostly Cloudy
12:43 PM 68.0 °F 60.1 °F 76% 29.94 in 10.0 mi SSW 3.5 mph - N/A   Mostly Cloudy
12:54 PM 69.1 °F 62.1 °F 78% 29.93 in 10.0 mi Variable 5.8 mph - N/A   Mostly Cloudy
1:54 PM 73.0 °F 63.0 °F 71% 29.91 in 10.0 mi NNW 8.1 mph - N/A   Scattered Clouds
2:54 PM 73.9 °F 61.0 °F 64% 29.88 in 10.0 mi Variable 4.6 mph - N/A   Partly Cloudy
3:54 PM 77.0 °F 62.1 °F 60% 29.87 in 10.0 mi Variable 3.5 mph - N/A   Clear
4:54 PM 78.1 °F 62.1 °F 58% 29.85 in 10.0 mi NW 5.8 mph - N/A   Scattered Clouds
5:54 PM 77.0 °F 60.1 °F 56% 29.85 in 10.0 mi West 5.8 mph - N/A   Scattered Clouds
6:54 PM 75.9 °F 61.0 °F 60% 29.84 in 10.0 mi Variable 3.5 mph - N/A   Partly Cloudy
7:54 PM 73.9 °F 60.1 °F 62% 29.85 in 10.0 mi WSW 3.5 mph - N/A   Clear
8:54 PM 69.1 °F 63.0 °F 81% 29.85 in 7.0 mi SSE 4.6 mph - N/A   Clear
9:54 PM 66.0 °F 62.1 °F 87% 29.85 in 10.0 mi Calm Calm - N/A   Clear
10:54 PM 64.9 °F 61.0 °F 87% 29.86 in 10.0 mi Calm Calm - N/A   Clear
11:54 PM 63.0 °F 61.0 °F 93% 29.85 in 10.0 mi Calm Calm - N/A   Clear